Theta_e
325 323 322 323 322 321 322 321 321 321 321 322 322 321 321 321 322 322 322 322 322 323 323 323 324 324 325 326 327 327 323 312 310 305 302 301 310 335 335 335 338 337 328 300 300 300 298 296 301 297 300 298 299 299 299 299 296 296 291 286 287 283 284 287 288 288 287 289 290 289 290 292 290 292 295 294 293 291 293 297 293 301 307 313 313 310 309 315
323 322 322 322 321 321 321 321 321 321 321 321 321 320 321 321 320 321 321 321 322 322 322 323 323 325 325 325 326 325 312 309 304 303 302 313 334 336 336 336 334 333 317 301 298 296 298 298 297 295 298 297 299 299 299 298 297 290 286 287 288 284 287 290 289 289 290 291 289 290 288 291 292 291 294 293 291 292 294 295 292 298 299 307 310 310 314 318
323 322 322 322 321 321 321 321 320 321 321 320 320 320 320 320 320 320 320 321 321 321 322 322 323 323 325 325 325 324 314 303 299 297 302 336 335 338 337 334 334 331 306 301 296 296 297 297 296 296 293 295 294 298 295 297 296 291 291 289 284 289 288 289 288 289 289 290 290 290 290 289 292 293 293 294 290 290 292 291 293 294 296 301 309 310 315 318
322 322 321 321 320 320 320 320 320 321 320 319 320 320 319 319 319 320 320 320 320 321 321 322 322 323 323 324 325 316 303 299 296 297 300 336 336 336 338 336 331 316 305 302 298 298 296 295 294 296 294 291 291 295 295 296 296 293 289 285 289 287 293 293 288 288 287 289 289 289 289 290 291 291 293 289 292 290 289 289 296 295 294 303 309 310 314 317
321 321 321 320 320 320 320 320 320 320 319 319 319 319 318 318 318 319 320 319 320 320 321 321 322 323 324 324 322 306 297 290 293 297 307 332 336 336 336 337 327 306 306 302 300 297 296 295 294 292 293 291 292 292 291 293 292 293 292 288 289 288 292 292 288 288 288 286 290 287 291 291 291 292 289 291 291 289 293 296 293 295 295 308 310 312 313 316
322 321 320 320 320 319 320 320 320 320 319 319 318 318 318 317 318 319 319 319 320 321 321 322 322 322 324 323 310 302 294 286 298 306 328 334 335 336 334 332 322 303 303 301 298 298 300 297 297 296 290 291 291 290 290 291 293 294 289 288 287 288 292 290 290 289 286 288 289 288 291 291 291 292 286 290 293 291 291 292 293 293 298 309 311 314 315 315
321 320 320 320 319 319 319 319 319 319 319 318 318 317 317 317 318 318 319 319 320 321 321 321 322 323 322 321 307 302 295 292 300 308 328 333 333 333 332 328 318 304 302 301 301 299 294 294 293 291 288 289 289 290 291 294 289 289 291 289 292 287 293 288 291 287 286 289 289 289 291 292 289 293 289 288 292 291 290 290 290 291 309 311 312 313 315 316
320 320 319 319 319 320 319 319 319 318 318 318 317 317 317 318 318 318 318 319 320 320 321 321 321 322 321 306 301 296 297 295 303 307 329 328 323 324 316 305 304 302 302 299 298 296 294 294 294 291 289 290 290 290 292 292 292 291 291 289 290 288 290 288 286 286 287 288 289 289 292 291 288 290 289 289 292 292 291 292 294 303 308 308 311 312 313 314
320 320 319 319 319 319 319 318 318 318 318 318 317 317 317 318 318 318 318 319 320 320 320 321 322 321 320 301 294 293 292 300 306 311 312 308 309 307 306 306 302 302 299 299 301 296 298 294 292 293 293 290 292 291 290 292 290 290 291 288 290 291 289 289 289 286 287 290 288 291 291 289 289 289 291 293 292 290 292 296 301 305 306 307 310 312 312 312
320 320 319 318 318 319 319 319 319 318 318 317 317 317 318 318 318 318 318 319 319 320 320 321 322 320 306 298 294 289 296 308 311 307 307 305 305 306 306 304 301 301 302 299 297 296 298 294 296 295 292 291 292 291 290 291 289 288 289 289 290 290 290 290 291 289 288 290 288 290 289 290 289 291 289 290 289 288 294 294 299 304 306 307 307 310 311 312
320 320 319 318 318 319 318 318 318 317 317 317 316 316 317 318 317 318 318 318 319 320 321 321 321 317 306 296 292 290 305 311 309 306 305 304 304 305 306 305 303 303 301 301 300 296 298 295 296 296 299 294 293 291 290 292 290 289 290 289 290 287 290 288 289 290 289 293 287 290 290 290 290 290 291 292 289 289 292 294 297 297 303 306 306 308 310 311
320 320 319 318 318 319 318 317 317 317 317 317 316 316 317 317 317 317 318 319 319 319 321 320 319 307 297 296 291 294 305 310 308 305 306 308 306 307 305 304 304 303 303 300 302 302 297 296 298 297 292 295 292 292 293 292 292 290 292 291 288 286 293 289 291 290 289 292 291 289 291 289 290 290 290 290 287 289 289 293 293 295 296 299 304 306 307 311
320 319 319 319 319 318 318 317 317 317 316 316 316 316 317 316 316 317 317 318 319 320 321 319 315 310 299 295 295 300 305 307 309 305 306 306 305 304 305 304 304 303 304 303 301 303 299 299 296 296 296 292 290 290 293 291 289 291 289 287 288 283 285 290 288 289 291 292 288 290 284 282 286 293 292 290 287 289 291 290 290 292 292 292 295 302 306 307
319 319 319 318 318 318 318 317 317 317 316 316 316 316 316 315 315 316 317 317 318 320 321 317 310 305 295 290 298 308 309 309 308 306 304 307 305 306 302 303 303 302 305 302 302 301 301 297 298 296 296 294 293 297 293 289 289 291 289 286 283 285 284 288 289 289 291 291 289 289 284 282 282 285 285 285 288 291 291 290 288 289 289 291 292 295 300 304
319 319 319 318 318 317 317 317 317 317 316 316 315 315 316 315 315 316 317 317 319 320 320 315 306 299 293 293 300 308 321 309 305 305 305 304 304 304 303 303 303 302 301 303 303 302 299 300 299 294 295 293 295 292 287 284 285 283 286 283 281 283 282 284 288 288 290 292 288 289 283 285 288 289 287 287 287 289 291 291 289 288 288 288 290 292 294 298
319 319 318 318 317 317 317 317 316 316 316 315 315 315 315 315 315 315 317 318 320 319 312 309 304 294 290 290 305 316 306 303 302 304 306 305 305 305 302 301 303 301 301 301 301 299 298 299 295 293 293 293 290 287 284 287 284 282 283 282 284 282 280 285 291 286 289 291 290 289 284 283 288 288 286 288 287 288 289 288 288 288 288 289 289 291 292 293
319 319 318 317 317 317 317 316 316 316 316 315 315 315 315 315 315 317 319 318 313 311 309 304 305 300 290 298 306 303 301 303 305 306 304 305 306 302 302 302 301 300 300 300 300 300 297 295 293 292 289 288 285 288 285 283 279 286 281 282 281 283 282 283 285 288 288 289 290 287 287 284 287 287 286 287 289 288 289 289 289 289 289 290 289 290 291 292
319 318 318 317 317 317 316 316 316 315 315 314 315 315 309 316 318 317 315 311 310 309 307 305 303 293 292 300 296 298 302 303 306 304 304 303 302 302 300 299 297 298 300 300 298 297 296 294 290 289 287 287 288 286 285 281 285 282 284 283 284 281 280 281 284 288 289 288 289 287 286 289 291 293 292 291 289 290 290 291 291 291 291 291 291 291 291 292
319 318 318 318 317 317 316 316 315 315 314 314 315 317 317 317 308 305 303 298 294 292 291 294 290 284 284 291 297 302 305 306 304 305 306 305 304 302 301 299 299 300 295 293 295 296 292 292 291 287 286 284 287 288 288 285 285 286 287 284 280 283 283 283 283 284 288 288 288 285 288 289 291 291 292 293 289 289 288 287 289 290 290 290 291 291 292 293
319 318 318 318 317 316 316 315 315 315 315 312 308 303 296 294 295 296 300 299 289 288 291 294 292 291 297 296 301 304 305 303 303 300 304 304 304 302 299 297 298 294 293 293 294 293 291 289 287 286 286 287 288 288 286 284 287 285 282 280 282 282 281 282 283 286 286 288 287 285 285 285 289 291 292 293 290 288 289 291 292 292 292 292 292 292 292 292
318 318 318 317 317 316 316 315 315 314 314 305 307 295 290 291 288 285 292 294 293 292 294 295 294 297 296 300 301 301 300 299 300 300 303 308 304 301 296 296 294 292 289 290 293 293 291 287 287 287 289 290 288 284 285 285 284 286 283 283 282 283 284 286 287 285 286 288 284 281 284 287 288 290 291 292 288 290 292 292 292 293 293 293 293 293 293 294
318 318 317 317 316 316 315 315 315 314 313 309 306 294 294 292 294 293 292 288 292 293 294 294 297 300 302 301 302 301 298 295 299 301 304 304 301 298 293 292 290 292 290 290 291 291 288 287 288 288 285 285 284 284 283 284 283 281 284 281 283 283 281 284 286 286 286 288 283 281 285 289 290 291 293 292 293 293 293 292 294 293 293 293 293 293 292 291
318 318 317 316 316 316 315 315 314 314 309 307 304 300 299 303 299 296 290 287 289 293 294 294 295 298 300 301 302 302 297 292 293 297 302 303 299 297 294 292 290 289 290 291 290 286 286 286 289 286 286 288 285 284 285 284 283 282 282 283 283 282 286 285 284 285 286 285 286 284 285 289 289 287 290 293 292 290 289 290 291 291 293 294 295 293 293 292
317 317 317 316 316 315 315 314 314 311 307 307 305 301 302 301 302 295 290 285 286 291 295 296 296 298 297 299 303 297 295 294 294 296 301 301 297 296 295 289 289 289 290 288 289 289 286 288 287 287 287 289 286 286 286 286 285 283 282 281 282 285 284 282 286 283 282 285 282 283 284 286 280 281 283 282 282 284 288 288 289 291 292 293 292 291 292 292
317 317 316 316 315 315 314 314 307 305 308 308 305 306 304 302 299 299 289 286 282 288 295 295 298 299 302 305 304 299 295 294 294 297 301 300 294 295 294 291 290 288 289 287 287 287 287 286 286 287 285 285 286 285 284 287 283 285 283 283 283 282 285 284 283 287 277 280 281 282 280 274 276 279 281 284 283 287 285 286 289 289 287 287 290 292 293 292
316 316 316 315 315 314 314 305 304 307 305 302 304 304 303 303 302 299 287 280 279 282 290 289 299 295 306 299 300 297 296 293 297 298 302 299 300 295 293 291 290 289 286 287 288 285 285 287 287 288 288 285 285 285 284 286 282 283 286 284 282 283 284 283 283 281 279 280 282 281 281 276 279 281 285 284 283 287 288 286 289 290 288 285 288 290 290 292
317 316 316 315 314 314 304 298 308 306 300 301 307 306 300 303 297 295 288 277 276 284 285 291 293 294 302 299 300 296 287 287 299 299 299 301 298 298 293 288 288 288 288 288 286 286 288 287 286 287 286 286 285 284 285 287 284 283 283 282 284 285 285 282 281 282 279 278 282 278 275 277 279 285 282 281 282 285 286 289 289 290 286 285 286 288 289 291
316 316 315 315 314 312 300 307 305 302 300 301 302 307 303 300 296 290 281 271 270 288 286 286 292 298 301 299 297 292 290 295 292 296 297 299 298 293 291 287 290 289 288 287 282 285 288 287 286 286 285 284 286 284 286 287 285 283 284 284 284 284 281 280 281 280 279 280 281 277 283 280 277 282 282 281 284 284 287 289 290 289 288 287 287 287 287 288
316 315 315 314 314 312 308 305 304 301 303 299 303 305 303 298 292 288 278 270 283 282 296 290 300 299 295 297 292 291 293 293 289 293 296 297 297 295 290 287 287 287 286 288 286 286 289 288 288 289 288 286 284 285 284 288 288 287 283 284 282 282 281 280 278 280 279 279 274 278 281 276 277 280 281 278 284 283 286 288 287 287 287 288 288 288 286 285
316 315 315 315 312 309 305 305 303 302 300 301 303 304 301 294 290 283 274 267 288 281 288 290 292 289 293 293 289 291 292 291 292 294 294 294 295 292 292 291 291 289 290 287 285 286 289 290 291 287 287 286 285 285 284 285 287 287 285 287 284 281 280 278 277 276 276 273 275 277 277 278 276 279 282 284 283 283 283 283 284 286 286 287 287 289 290 289
316 316 315 314 307 309 308 301 304 302 302 301 303 304 297 288 282 276 268 278 286 286 286 287 286 293 292 290 288 287 289 289 294 293 292 294 292 290 290 291 290 285 284 283 287 284 288 288 290 288 286 284 286 286 286 285 285 287 285 281 284 281 279 277 271 275 272 269 273 276 278 278 275 276 279 282 282 282 285 286 287 286 288 288 288 291 291 290
315 316 316 312 309 312 304 301 307 304 304 302 303 298 291 281 282 277 274 288 281 283 283 283 284 288 291 292 288 288 290 290 290 291 291 288 288 289 289 287 287 280 280 282 283 284 286 289 286 289 288 289 286 288 286 287 282 284 283 285 279 272 270 274 269 274 272 270 278 277 278 278 279 282 282 283 285 286 283 286 287 286 287 288 287 288 289 289
315 315 315 312 311 306 307 308 305 306 304 301 298 290 285 279 274 281 279 282 279 284 284 286 284 287 289 288 287 288 288 289 289 290 288 288 289 287 288 287 287 285 281 281 282 283 282 282 286 289 290 289 290 287 284 284 283 283 286 280 275 271 267 265 260 262 266 272 276 278 278 278 278 281 287 290 292 288 285 283 285 286 287 289 290 289 288 288
315 314 310 311 310 309 309 307 307 306 304 300 293 286 280 275 277 290 282 280 282 283 283 282 285 285 289 288 286 290 287 286 289 289 290 287 287 286 288 288 286 285 281 281 285 283 277 279 285 289 287 289 289 288 290 287 285 286 283 285 281 270 267 266 263 271 271 271 274 274 274 274 275 283 286 286 289 286 286 285 284 284 286 287 287 286 287 288
314 312 311 310 310 311 310 308 308 308 303 296 290 286 279 278 282 281 282 281 282 283 284 287 287 286 285 282 285 289 287 285 288 288 287 287 285 285 287 289 286 282 284 285 282 280 283 279 282 286 287 289 290 288 287 286 286 283 281 281 279 279 274 271 266 265 264 269 269 273 276 277 281 282 285 286 284 285 284 285 284 286 285 283 285 286 287 288
311 309 310 308 308 311 312 310 307 305 301 292 287 282 279 283 278 282 283 286 284 283 283 285 282 284 282 283 285 287 290 287 287 286 286 286 286 287 287 288 288 288 287 285 282 280 279 280 284 284 286 288 288 287 289 288 284 284 283 278 280 279 279 271 268 270 270 268 272 268 277 281 281 283 286 286 286 289 285 283 284 286 285 283 286 286 286 287
307 308 303 306 308 312 312 309 307 302 296 290 286 281 285 282 284 282 291 288 286 288 285 282 281 282 282 281 283 286 287 288 286 285 284 286 286 285 286 288 289 288 289 287 283 283 282 279 284 285 287 288 287 286 286 285 285 284 279 281 282 281 280 277 273 264 262 269 271 270 275 277 275 280 282 282 286 287 287 286 283 283 283 286 288 286 286 288
306 305 306 306 309 313 312 310 306 300 294 288 283 288 282 284 287 286 288 287 287 285 283 283 282 284 282 282 281 285 286 286 285 285 284 286 283 289 287 287 288 291 290 286 288 284 284 281 283 284 284 286 285 289 288 287 286 283 281 284 285 279 277 276 271 270 265 265 267 270 272 274 278 281 280 282 284 287 289 289 285 286 286 287 287 286 286 286
306 304 299 306 312 313 312 310 304 298 292 285 284 286 287 284 289 287 289 290 288 285 285 281 282 284 283 282 283 285 287 283 285 284 283 283 283 285 290 289 286 289 290 287 285 283 284 279 279 285 285 286 286 286 284 284 287 285 285 284 284 279 272 273 276 270 272 266 263 271 267 279 279 278 279 286 283 285 287 286 287 288 286 287 286 287 287 286
301 298 296 308 311 313 312 309 301 295 288 284 286 280 286 286 288 288 286 288 287 285 283 283 282 283 283 283 285 284 285 284 285 285 285 285 285 287 287 291 289 287 289 288 286 287 284 282 275 280 285 286 284 284 284 285 283 282 283 282 285 279 281 279 276 274 274 265 264 266 270 273 277 279 281 285 285 284 285 287 288 289 287 285 286 287 286 286
301 296 296 309 310 311 311 304 295 290 288 282 283 282 285 286 287 288 289 289 289 290 286 284 285 284 282 283 283 285 284 283 285 284 284 284 286 283 288 291 289 288 287 288 286 286 282 281 278 281 282 282 282 282 284 287 287 286 285 283 286 280 278 275 276 276 266 271 268 263 273 275 277 280 284 283 284 285 284 284 286 287 285 284 285 284 285 285
296 289 294 309 310 311 305 294 290 290 287 285 285 285 286 294 286 289 288 288 288 288 289 286 286 284 284 286 286 285 285 283 284 285 284 284 287 286 286 290 289 291 291 285 288 285 284 280 281 276 282 285 285 286 282 283 285 284 285 285 286 284 280 273 274 273 271 273 270 266 265 280 282 284 283 282 282 282 282 283 285 285 284 284 284 285 284 285
293 291 302 308 310 307 300 288 288 288 285 286 290 287 289 288 287 288 287 289 288 289 287 286 288 286 285 285 285 285 287 285 286 285 285 286 285 288 286 289 290 291 292 287 287 284 290 278 279 278 277 279 283 282 284 283 286 287 285 281 284 284 281 279 274 274 279 271 272 271 267 280 285 284 281 281 280 280 281 280 284 284 285 285 286 287 291 291
294 294 298 304 306 305 295 286 286 287 284 288 289 289 291 290 289 288 287 289 287 289 288 287 288 290 286 284 285 286 288 283 285 287 284 285 285 286 286 288 292 289 291 288 289 290 282 281 282 270 270 274 277 282 282 284 285 282 282 282 283 280 279 277 275 273 274 275 277 276 270 281 283 281 282 285 283 283 284 283 282 284 285 286 292 292 291 289
293 294 294 298 303 301 290 290 287 287 285 285 286 287 288 288 290 290 289 289 289 287 288 287 289 287 287 286 286 287 289 287 282 287 286 283 287 286 287 288 291 290 290 290 294 292 287 281 281 274 275 273 272 274 278 282 283 281 280 282 282 285 281 280 278 273 274 272 276 273 277 284 285 283 286 285 284 288 287 286 285 282 287 293 293 291 289 287
289 283 291 293 297 297 295 294 291 287 285 285 285 286 289 286 289 290 292 292 292 291 290 289 288 287 286 286 286 286 287 286 285 283 286 284 284 286 286 286 288 290 291 294 291 291 278 280 283 283 282 279 281 281 284 285 282 282 281 283 283 284 284 283 277 274 278 277 275 280 283 285 284 284 284 286 284 286 288 289 288 289 288 286 285 286 287 287
289 285 286 284 291 292 291 292 288 290 286 290 285 288 286 288 288 289 293 290 292 291 291 290 289 288 287 287 285 285 286 287 285 284 285 286 283 285 285 287 287 288 293 290 291 285 276 281 283 283 284 285 285 281 282 287 284 285 284 282 284 284 284 284 282 282 286 277 277 282 284 282 286 284 285 283 284 283 283 285 286 287 288 290 290 287 289 288
285 286 289 291 288 284 285 286 289 287 290 291 287 290 288 287 288 286 291 292 293 294 289 290 290 289 288 287 286 283 285 285 285 284 283 282 284 287 287 288 287 290 290 289 289 287 282 280 283 282 283 283 282 280 283 284 285 285 286 285 283 284 283 283 284 287 285 281 281 286 283 283 286 287 288 289 287 288 288 289 288 288 287 286 286 287 288 289
286 285 285 289 287 287 289 288 289 288 287 289 287 289 287 288 287 290 289 289 291 291 292 285 288 289 287 286 286 284 285 282 283 283 280 281 282 282 283 286 288 286 288 287 287 283 285 280 281 283 283 284 282 281 282 285 283 283 284 285 285 285 284 286 286 288 287 285 286 287 283 285 289 289 288 290 290 289 287 286 286 287 289 289 286 287 289 290
284 283 284 286 286 285 289 291 289 288 285 288 285 286 288 288 288 290 291 290 286 289 293 288 287 289 289 288 287 285 286 287 286 285 283 283 282 281 283 283 285 286 287 287 286 286 287 281 285 281 278 281 283 281 281 282 283 281 281 282 284 285 285 286 287 288 287 286 286 285 284 285 290 289 285 288 289 288 289 287 289 289 287 287 288 290 291 290
288 287 287 284 284 285 287 290 288 287 285 286 285 287 288 289 288 292 291 294 291 289 291 289 289 288 289 289 288 288 289 289 288 288 287 287 286 286 286 286 288 286 285 286 285 286 286 280 279 279 278 278 280 280 280 280 280 279 280 281 282 283 282 284 284 286 284 284 285 285 284 285 291 287 288 291 288 287 288 289 289 290 290 290 290 291 291 291
287 287 288 286 281 288 287 287 290 288 284 287 287 288 288 288 291 292 288 292 294 294 294 293 291 291 288 289 289 291 292 292 293 292 293 293 293 291 290 289 289 287 285 287 284 284 284 281 280 276 277 278 279 280 278 278 277 275 279 283 284 284 286 286 287 286 288 288 285 283 284 291 293 289 289 289 286 288 288 290 290 291 292 292 291 291 292 290
Wind_Speed
17 18 15 14 14 14 13 13 12 12 11 12 11 9 9 9 8 7 7 5 4 6 6 4 4 5 6 6 6 6 5 2 1 1 0 7 4 6 6 6 4 4 3 2 3 4 0 2 1 5 2 4 3 1 1 3 2 1 2 5 1 1 2 5 6 9 2 3 4 4 6 5 3 1 1 1 5 2 1 0 2 0 3 1 3 3 3 3
18 17 15 14 14 13 14 13 12 11 11 11 10 9 9 8 7 7 6 5 5 7 6 4 4 4 5 6 6 5 1 0 0 0 11 2 7 7 6 6 4 4 3 1 4 3 4 0 1 3 2 1 2 0 1 0 1 4 2 3 5 4 4 6 4 5 2 2 4 3 3 4 5 5 2 2 0 1 0 2 2 2 2 1 3 0 6 8
16 15 15 16 15 14 14 13 11 11 12 10 10 9 9 7 6 6 5 4 5 7 5 4 4 3 5 6 7 4 2 1 1 5 9 9 7 7 6 6 4 3 1 2 3 6 4 5 3 3 3 3 6 1 2 1 1 1 4 2 3 8 2 4 4 3 2 3 5 5 3 2 1 2 0 2 2 1 5 4 2 2 5 3 2 2 7 7
16 17 16 16 15 14 13 12 11 12 10 9 10 9 8 7 6 6 5 3 5 7 4 4 3 3 5 6 7 3 0 2 2 3 2 4 8 7 6 6 5 4 4 6 5 4 5 8 5 3 1 5 2 1 2 1 0 1 3 3 3 3 1 1 5 3 4 2 4 4 1 1 1 2 2 3 4 3 5 6 8 9 9 5 4 5 7 9
18 17 16 14 15 15 13 12 12 12 10 9 8 9 7 6 5 6 4 3 4 5 4 3 3 3 4 6 5 1 3 3 5 0 2 3 5 7 6 5 5 2 3 7 8 6 7 4 2 3 3 1 2 2 0 1 0 4 1 1 2 1 0 0 3 1 2 3 5 2 6 5 1 0 2 7 6 7 9 9 10 8 6 12 11 9 6 9
17 17 17 16 15 15 13 14 12 11 10 9 8 7 6 5 5 4 4 2 2 4 3 4 3 3 3 3 1 1 3 4 0 1 1 4 5 6 5 5 6 7 6 4 3 3 5 3 3 1 1 2 1 3 1 0 1 3 1 0 3 2 1 1 1 2 4 4 6 6 4 3 3 1 1 4 8 4 5 0 4 4 3 2 6 11 9 10
17 17 16 16 15 14 14 13 13 12 10 9 8 6 5 5 4 4 3 2 2 3 4 4 3 2 4 2 1 2 3 4 1 2 0 5 6 5 5 6 6 5 3 4 2 2 2 3 3 1 3 3 0 1 1 0 2 3 2 0 0 3 0 1 1 1 2 8 6 3 1 2 3 3 1 3 8 4 1 0 1 3 6 8 11 11 15 16
17 17 16 15 15 14 14 14 13 11 10 9 8 5 4 5 5 4 3 2 1 2 3 3 3 3 3 1 2 1 0 4 0 3 2 7 6 6 6 4 5 4 4 4 6 3 4 5 5 2 2 5 3 4 0 4 3 2 1 2 1 1 1 1 1 3 2 1 0 2 5 1 3 1 1 6 10 6 4 2 3 5 6 6 9 11 9 10
17 16 16 15 14 13 13 14 12 11 10 9 6 4 4 6 5 4 3 2 0 1 2 3 4 4 3 2 3 3 5 1 2 2 1 5 5 4 0 1 1 5 3 3 0 5 5 3 2 4 3 1 1 4 1 5 3 2 1 3 1 1 2 1 1 4 2 1 1 4 0 1 2 1 3 10 5 1 1 3 5 5 6 7 10 12 11 11
16 15 15 14 14 13 13 12 12 12 10 9 6 4 4 5 4 4 3 2 1 1 3 3 4 3 4 2 2 4 3 1 1 3 3 6 5 7 8 4 5 6 5 1 5 4 3 4 5 5 7 3 2 1 0 1 1 3 4 3 4 1 0 4 2 2 1 2 1 3 1 0 2 2 7 1 1 2 2 3 2 7 8 7 6 8 9 11
17 15 15 14 12 14 14 13 12 12 11 9 6 4 4 4 4 4 4 2 1 1 3 4 3 5 2 2 5 7 2 2 0 1 3 5 6 6 2 3 3 3 5 1 1 4 2 6 3 5 1 3 4 0 1 1 4 4 8 4 5 5 2 2 2 2 1 1 1 3 1 0 2 1 9 2 4 1 4 2 3 4 6 7 6 7 7 7
19 17 15 14 13 15 15 14 13 12 11 9 7 5 5 5 3 2 3 3 1 1 3 5 4 4 3 2 4 5 1 2 0 1 2 1 3 3 4 6 3 4 5 3 2 2 3 5 6 2 2 3 1 1 0 1 2 3 1 2 3 4 1 4 1 1 1 0 0 0 1 2 0 7 6 2 3 3 3 3 3 5 5 4 5 6 6 11
18 17 16 14 13 14 15 15 14 13 11 10 7 6 6 4 1 2 2 3 3 2 3 5 4 3 3 1 6 5 2 1 0 6 4 3 4 3 4 3 4 2 1 3 3 3 3 6 5 6 0 4 3 2 3 5 1 1 6 3 2 2 2 1 2 1 1 0 1 1 3 7 10 13 2 2 5 3 1 2 5 5 4 4 5 6 8 5
17 16 16 14 14 14 14 14 14 13 11 11 8 7 5 3 1 1 2 2 3 2 3 4 3 2 2 3 4 2 1 1 2 5 2 0 3 1 4 4 5 3 1 4 3 3 4 1 5 6 2 4 2 0 3 2 4 4 0 5 1 1 3 2 0 1 4 1 1 1 3 7 6 4 4 4 1 1 3 5 4 5 5 4 5 5 8 9
17 16 15 15 14 13 13 15 14 12 13 11 9 8 6 3 0 1 2 2 0 2 3 3 1 4 2 3 2 5 3 1 1 0 0 2 3 2 2 4 7 5 3 5 3 1 4 4 6 3 1 1 2 4 2 3 4 2 4 2 1 3 3 5 1 0 4 0 3 4 1 8 9 9 4 2 2 2 6 6 5 4 5 5 5 6 8 11
18 17 16 15 14 13 13 13 13 13 13 12 9 7 7 3 1 2 3 2 1 2 1 1 2 3 5 1 1 1 1 1 3 0 0 2 2 1 1 4 2 3 3 4 3 3 4 7 7 2 2 4 6 7 5 3 1 4 2 1 2 1 4 4 0 1 3 1 3 2 5 4 3 3 3 1 4 1 1 5 5 5 6 5 5 7 7 8
18 17 17 16 15 14 15 13 12 13 12 12 11 7 6 3 1 2 4 2 2 1 1 2 2 0 2 1 0 0 2 1 1 1 2 3 2 4 4 3 2 4 5 3 3 2 5 5 2 2 4 5 2 6 7 1 1 2 3 1 2 2 1 1 4 1 3 2 3 2 2 6 5 8 4 4 0 2 3 6 6 6 5 6 4 5 7 8
18 18 17 16 16 16 14 13 13 14 13 12 8 7 3 5 6 2 1 2 1 1 2 2 2 1 6 1 1 2 0 1 1 3 4 1 5 4 3 2 1 4 4 3 4 2 3 1 2 4 2 1 2 4 7 8 8 5 2 0 1 0 2 3 1 1 1 2 2 1 3 10 12 11 10 5 1 1 6 7 7 8 7 7 5 6 8 8
18 17 17 17 16 17 15 14 13 14 13 11 10 8 6 5 4 2 3 2 2 2 1 2 4 4 2 4 1 2 0 1 1 2 1 1 3 4 4 3 4 6 2 3 1 2 3 4 4 3 6 3 7 7 8 6 6 9 9 6 4 4 3 2 4 2 0 1 2 3 7 7 10 10 10 8 2 1 5 5 7 9 8 8 8 8 8 9
18 18 18 19 17 16 16 15 14 14 15 10 6 3 2 3 2 1 1 1 0 2 1 6 3 2 0 3 2 2 2 1 4 4 1 1 2 3 5 2 3 6 4 5 0 2 1 5 7 8 7 6 6 6 4 3 6 5 4 4 3 4 1 3 2 2 1 1 4 4 5 6 13 12 12 13 3 5 6 10 10 9 8 9 9 9 10 9
20 18 20 19 18 16 16 15 14 13 13 3 4 4 5 8 9 3 1 3 2 2 3 1 3 2 0 0 1 1 5 1 3 1 0 0 0 6 1 2 2 2 1 1 4 0 3 4 8 5 8 9 6 7 8 8 4 6 5 5 1 1 2 0 1 3 3 1 2 2 4 10 12 12 13 10 6 11 11 12 12 12 11 9 9 11 11 11
20 20 19 20 18 17 16 16 14 13 9 3 1 2 0 2 1 2 5 2 2 2 3 0 1 1 2 2 3 2 3 3 1 1 1 1 1 6 2 4 3 7 0 2 3 2 2 9 6 5 3 9 6 4 3 5 5 3 5 3 2 4 3 4 1 2 3 1 5 1 4 10 11 12 13 10 12 9 7 8 9 7 9 10 9 10 9 6
21 20 20 19 18 18 17 16 14 11 4 4 4 1 3 2 1 3 3 4 2 0 2 2 4 2 1 3 1 0 1 3 5 2 1 1 1 1 4 3 4 3 1 2 9 4 3 5 9 4 5 7 3 3 7 7 6 6 5 3 6 2 2 3 2 1 3 2 2 1 6 12 8 8 13 14 8 6 5 7 9 7 11 14 14 8 7 9
21 21 20 20 19 19 18 15 14 8 4 4 2 6 2 1 0 2 1 2 3 1 0 1 1 3 4 4 3 3 3 1 3 6 3 3 6 2 4 3 4 3 7 4 6 9 6 1 0 7 4 8 5 1 5 5 2 1 3 3 3 2 2 2 0 1 0 1 2 2 5 10 4 5 7 4 3 3 6 5 7 10 11 11 9 8 8 12
22 21 21 20 18 19 16 16 7 3 5 2 5 4 4 1 3 2 3 1 3 1 0 1 3 1 2 1 1 2 1 2 1 1 1 5 4 4 1 1 4 4 3 2 4 3 5 1 4 7 4 3 5 3 4 7 2 0 4 5 4 4 5 0 1 1 5 2 4 2 4 4 4 6 9 10 7 8 3 4 9 10 6 5 8 12 9 9
23 22 21 21 21 19 19 8 6 5 9 8 4 1 2 3 3 1 6 3 2 2 2 5 2 3 3 0 2 3 4 2 0 2 1 2 3 3 2 1 1 7 3 5 6 2 4 1 2 5 7 4 5 5 4 5 5 3 5 4 3 5 5 5 2 3 1 1 2 2 3 7 7 5 6 5 7 11 10 4 11 8 4 5 8 8 9 9
22 22 22 22 22 21 9 2 6 9 6 7 8 4 1 1 1 2 3 4 3 4 6 2 2 1 1 1 4 3 5 5 0 2 2 3 2 1 5 3 2 4 2 2 2 3 2 1 4 4 4 5 5 4 3 8 7 4 1 5 7 7 6 4 5 2 1 1 3 4 3 1 8 10 3 3 4 9 9 12 10 8 5 6 6 7 8 8
21 21 21 23 23 18 4 8 11 9 5 2 3 6 3 2 1 1 4 3 3 2 2 2 1 2 2 0 4 3 1 2 4 3 0 2 1 3 3 5 6 7 2 4 7 2 3 3 3 4 1 3 7 4 6 6 7 2 2 4 4 5 4 6 5 4 0 1 7 4 0 1 5 10 3 2 4 5 9 12 12 8 8 8 7 8 8 7
22 21 22 19 21 8 7 7 9 10 4 0 3 8 4 3 1 7 4 2 1 2 3 5 4 2 2 1 3 2 1 4 2 1 3 2 4 2 2 4 5 5 3 2 7 1 2 2 4 5 7 7 2 1 2 7 4 1 6 7 7 8 6 4 4 4 1 1 6 3 1 3 8 8 6 1 2 7 10 10 8 8 7 9 9 9 7 6
21 22 22 22 12 5 2 3 6 4 2 1 4 8 6 2 3 3 3 6 3 2 1 1 2 6 3 10 1 2 3 1 2 0 3 3 2 5 3 3 5 5 2 4 4 3 1 3 4 3 3 2 4 3 1 2 2 9 4 8 7 8 4 3 6 2 3 1 6 4 3 2 5 7 8 3 5 6 3 4 5 7 6 5 4 5 5 5
22 23 22 20 9 5 6 3 6 2 2 4 5 9 6 6 5 4 5 7 3 1 2 1 3 4 9 12 7 2 4 0 1 3 3 1 2 4 2 3 4 5 3 3 1 4 1 1 1 0 3 3 3 5 6 3 4 5 3 4 7 4 6 4 5 5 1 5 4 1 1 0 7 7 6 8 5 4 5 4 7 7 7 7 6 6 6 5
21 22 24 13 5 6 7 5 4 4 6 5 7 7 6 5 2 8 4 1 2 5 5 4 2 5 14 9 6 6 8 2 0 4 9 5 7 8 7 9 6 5 2 6 6 1 1 2 1 3 3 6 3 9 5 1 4 5 7 8 7 2 4 2 2 2 5 6 1 2 2 1 12 11 7 8 10 8 5 7 6 5 7 8 7 7 6 6
19 20 23 9 7 3 1 1 5 6 5 5 5 3 6 6 10 8 3 5 3 5 7 5 6 7 7 7 6 4 1 8 2 1 4 0 6 4 1 3 6 6 7 2 4 2 4 1 1 2 2 3 4 10 2 1 1 4 9 7 6 2 1 2 3 1 6 5 4 1 0 5 4 7 13 17 17 1 2 5 7 7 6 7 8 8 8 7
17 18 12 5 6 5 3 5 5 7 7 5 6 6 4 5 8 9 6 3 1 2 5 3 4 3 11 11 7 8 6 2 6 3 3 5 5 7 6 3 4 1 6 3 8 7 3 4 6 7 2 2 1 2 10 8 9 7 1 8 9 8 6 5 4 5 5 4 2 4 1 7 1 2 0 7 9 6 6 6 5 6 7 7 7 9 9 8
19 15 9 5 5 1 4 4 7 8 6 6 8 10 13 11 8 12 9 4 2 1 3 1 7 7 4 4 0 2 3 2 1 5 3 8 8 7 12 11 3 5 3 9 4 3 8 4 3 2 1 1 7 1 3 5 4 0 2 5 5 7 5 1 4 3 1 1 2 1 6 4 5 3 9 6 6 7 6 7 4 8 5 4 6 5 6 5
17 8 7 6 6 5 4 4 5 5 7 8 10 9 13 12 7 4 7 5 2 5 5 6 3 6 2 2 2 5 3 3 5 4 2 5 2 9 4 3 8 10 9 10 4 4 4 4 2 7 3 2 1 0 0 2 8 4 4 3 4 2 10 7 1 1 1 3 7 2 8 8 8 7 7 10 6 10 3 5 2 5 4 3 5 5 6 5
9 10 9 8 8 5 5 5 5 5 4 6 12 12 12 2 1 3 4 8 7 14 7 10 4 6 6 7 6 8 4 5 3 4 6 3 4 5 5 7 4 5 5 9 1 2 9 4 2 2 2 1 0 1 1 4 2 8 2 7 2 2 5 5 4 2 3 3 7 2 8 6 3 10 5 2 3 7 8 6 4 5 3 3 4 3 4 6
9 9 6 8 7 6 5 6 6 4 3 6 11 13 1 5 0 1 0 7 5 4 7 7 2 7 7 8 6 8 2 7 8 3 5 8 5 6 8 3 5 11 8 2 4 3 6 2 1 1 0 5 2 0 3 2 2 3 3 3 6 3 1 2 4 1 1 2 5 4 3 6 8 10 4 3 1 6 9 8 4 5 4 5 2 3 6 5
8 8 7 6 5 8 6 5 4 6 5 7 10 12 1 0 0 1 3 3 3 5 9 4 5 3 5 8 5 5 9 9 7 7 7 4 6 4 14 8 2 2 6 5 2 1 1 4 2 1 1 2 2 4 9 3 3 1 3 4 1 3 2 4 6 3 5 4 2 8 3 8 6 6 7 11 8 7 7 6 7 7 5 1 1 2 4 4
9 4 2 2 5 6 7 4 5 4 3 14 13 4 1 2 1 1 1 3 3 4 4 6 2 6 2 4 7 9 5 5 12 8 5 3 7 2 5 5 7 6 10 3 2 3 3 1 3 2 3 1 3 4 8 9 9 2 3 1 0 2 2 4 1 3 4 5 5 2 6 6 6 7 6 9 7 7 7 6 6 7 4 2 1 3 5 5
0 4 2 3 5 6 8 5 6 9 10 2 4 2 0 1 2 0 2 2 2 3 2 5 7 6 6 5 1 3 3 4 5 6 5 3 9 5 7 9 8 7 5 2 3 3 3 2 7 2 2 4 5 2 2 8 6 8 10 10 11 9 4 4 7 3 2 3 4 3 10 6 6 3 8 6 7 7 5 2 6 8 4 3 6 6 8 5
1 5 2 4 6 9 9 9 2 1 0 4 6 3 1 2 3 1 1 1 4 1 3 5 1 4 4 6 7 7 6 5 4 5 4 8 7 5 2 7 7 13 12 9 11 3 5 3 8 3 7 8 2 0 2 1 0 3 5 8 7 4 6 5 7 5 3 0 5 2 1 12 4 7 7 5 1 2 2 4 7 6 7 5 4 7 7 5
2 3 1 4 6 7 7 2 3 1 1 1 2 2 1 1 2 3 2 1 1 1 1 1 4 4 2 3 2 5 11 6 11 10 5 8 4 6 4 9 11 10 9 2 5 3 5 4 4 1 3 3 3 2 2 0 1 1 4 1 5 8 5 5 2 6 8 2 1 1 1 10 1 0 3 4 5 5 5 4 7 5 5 7 5 3 0 1
2 2 2 3 2 2 7 10 13 11 3 1 2 1 1 1 1 1 0 1 2 1 2 2 1 0 3 2 4 9 8 3 5 7 5 1 3 2 7 9 16 8 11 9 12 8 5 3 8 2 2 3 4 2 2 2 0 4 3 3 2 4 5 2 5 1 1 8 7 8 7 13 1 3 1 0 3 3 2 2 5 4 3 2 0 1 0 1
3 2 3 3 3 1 4 1 1 6 3 3 3 4 2 1 0 1 2 2 0 2 3 0 1 3 1 1 3 2 8 5 3 7 2 1 3 1 2 9 8 7 2 2 3 9 6 5 9 8 11 9 8 8 14 15 12 1 0 2 5 8 7 5 4 1 4 3 9 6 9 10 1 3 2 1 2 2 1 1 1 5 2 1 0 1 1 1
2 3 0 2 2 1 3 2 3 3 5 4 3 2 3 2 1 3 2 1 1 1 1 3 1 3 2 3 4 4 7 1 2 3 8 4 2 1 2 3 9 5 3 8 8 10 3 2 7 10 14 15 15 7 2 11 5 6 5 8 6 6 8 5 6 5 10 6 7 9 10 17 7 1 2 2 1 2 2 1 1 3 3 3 4 4 4 5
1 2 3 4 3 2 1 3 4 2 5 5 6 4 8 8 2 0 2 1 2 2 1 1 2 4 2 5 5 5 5 6 0 3 5 6 1 1 3 2 3 4 2 4 7 7 3 4 8 10 13 14 9 3 5 8 9 11 11 10 11 11 11 11 11 14 14 4 9 12 16 11 20 5 4 4 4 4 4 5 3 4 4 4 4 4 5 5
2 2 2 1 2 4 6 6 8 7 0 5 3 1 9 10 5 4 2 1 0 0 3 1 0 1 7 9 6 5 5 5 4 5 2 2 3 0 2 2 3 2 1 2 2 4 6 7 7 6 10 10 4 4 7 4 8 10 14 14 13 14 13 15 16 19 9 11 19 17 6 10 21 9 10 9 6 6 7 7 5 3 4 5 5 4 5 6
1 0 1 2 1 1 5 4 11 7 7 7 1 3 7 12 14 9 3 3 1 1 2 4 5 5 4 2 3 5 7 6 6 2 4 3 4 3 2 2 1 3 3 1 3 2 4 5 6 6 10 10 6 6 5 9 4 2 7 11 15 15 17 20 20 20 19 16 16 13 8 17 19 9 10 11 7 7 3 1 1 2 7 6 3 5 6 7
1 1 0 2 3 2 3 8 9 9 7 9 5 7 6 9 15 6 0 5 4 4 2 3 4 6 4 4 2 4 6 1 3 7 3 7 0 1 4 4 4 1 0 4 4 2 5 6 7 4 4 7 8 5 4 6 6 6 5 5 9 14 17 20 20 20 16 13 10 9 11 16 16 6 3 6 7 4 0 3 6 5 4 5 6 8 8 7
1 1 1 3 3 1 2 7 8 9 6 6 6 4 5 8 11 11 6 2 10 8 6 13 6 3 1 3 2 3 1 3 2 4 9 5 8 7 5 4 6 7 4 3 1 1 3 4 2 3 5 5 4 7 7 2 1 2 5 5 9 13 14 13 13 8 5 9 12 13 14 17 19 5 6 12 4 4 7 8 7 8 10 10 11 13 10 9
1 1 1 1 2 1 4 2 6 7 7 9 8 6 6 10 6 6 2 2 3 3 7 8 6 7 2 3 8 7 5 4 8 7 7 5 5 3 2 3 5 8 7 6 0 6 5 5 4 4 5 7 2 6 7 6 2 3 10 15 18 14 11 8 8 6 11 14 13 11 16 17 18 4 6 6 5 8 9 10 10 12 13 11 10 11 11 7
Wind_Direction
177 175 165 170 180 176 175 172 173 173 177 176 169 170 166 161 154 142 132 145 126 92 74 55 39 359 335 322 316 323 317 144 84 89 188 241 197 150 130 120 137 154 167 98 80 111 0 23 117 340 41 54 317 77 286 52 32 57 80 112 81 202 134 204 175 187 203 125 230 183 200 150 228 207 215 119 31 68 352 10 310 316 262 237 268 263 248 183
175 169 160 170 172 174 177 175 174 177 182 173 169 172 172 158 154 139 136 151 123 95 81 62 42 9 330 315 322 333 343 84 144 188 222 153 143 151 135 132 139 161 158 60 125 130 124 43 48 51 72 60 323 14 6 352 72 93 121 92 208 183 236 158 197 190 120 257 173 201 176 183 222 147 233 129 292 40 125 276 8 310 291 326 341 319 138 151
170 161 159 171 169 177 178 177 177 185 175 168 172 173 168 160 150 141 137 147 121 102 94 72 49 12 331 330 319 330 271 39 358 259 252 162 151 151 146 130 141 166 182 153 200 141 154 183 177 93 10 99 2 158 51 304 61 209 116 163 251 208 227 211 167 191 209 132 147 171 204 150 256 154 9 203 153 67 194 208 309 264 246 246 313 123 143 158
165 156 161 171 171 175 180 177 185 180 168 173 177 164 157 161 153 150 146 150 118 109 116 83 66 14 347 330 324 284 71 57 258 242 303 169 150 150 147 135 118 97 81 69 145 103 104 85 71 95 60 70 310 11 123 290 113 218 83 160 225 194 134 225 176 223 202 152 155 162 74 170 256 207 163 160 116 254 266 235 184 204 216 194 190 161 153 160
165 158 159 173 173 172 177 185 186 172 173 180 177 173 160 165 162 153 137 136 115 111 108 115 65 26 351 334 341 151 82 45 264 226 292 174 152 141 144 133 118 79 97 144 89 61 74 99 91 40 88 162 355 26 8 350 121 102 180 195 159 147 58 345 188 189 164 220 125 139 141 216 89 62 117 150 170 224 209 232 214 211 175 155 168 179 164 170
161 160 158 168 177 173 180 182 178 176 175 181 183 176 173 168 163 153 120 114 124 115 114 94 75 27 352 359 75 68 97 173 308 341 292 139 143 139 139 118 110 107 105 58 96 95 102 26 83 68 20 83 176 132 249 142 344 177 321 211 192 196 123 343 336 261 142 138 151 151 207 96 145 186 189 177 202 230 224 253 223 199 163 157 142 149 166 177
161 159 161 167 170 179 179 175 178 178 181 182 182 180 181 166 156 119 120 115 125 113 103 87 74 48 343 93 83 102 171 261 352 302 96 113 119 132 125 105 100 93 80 89 61 102 85 100 94 176 93 67 303 114 213 101 24 102 177 165 209 176 64 77 335 197 195 140 188 198 89 142 139 195 129 205 245 224 134 241 261 166 131 144 147 179 172 185
161 161 160 163 169 174 177 176 176 175 182 180 181 179 174 156 126 124 103 128 108 103 103 92 77 49 49 87 113 18 48 253 243 311 98 95 89 107 104 60 92 96 104 145 137 121 119 127 156 133 74 148 205 128 259 98 19 101 131 204 133 108 261 325 91 76 121 96 304 124 137 304 184 188 72 250 245 258 281 80 85 123 133 149 163 177 189 193
161 162 161 164 168 168 171 174 177 173 181 178 170 187 166 129 126 107 114 84 24 83 106 94 82 76 112 86 113 109 245 239 197 298 143 90 118 106 232 85 65 108 118 79 83 162 137 234 111 183 228 160 147 97 277 128 297 153 157 120 84 85 327 311 83 51 49 125 102 101 153 321 240 213 250 244 266 305 233 72 111 121 144 172 183 185 183 193
160 161 163 166 167 161 161 171 171 175 174 172 173 182 172 129 116 101 97 75 3 106 97 96 71 98 94 84 70 173 259 192 12 358 119 127 112 93 53 124 106 115 107 24 92 107 168 204 166 187 124 80 122 81 197 109 215 136 106 106 103 327 320 11 134 358 326 119 277 141 248 272 315 120 281 355 289 311 107 89 127 145 177 193 193 197 202 195
159 159 164 167 162 158 159 165 168 172 170 175 161 192 175 125 95 83 73 51 49 122 96 87 85 133 88 103 134 215 196 105 123 46 141 133 105 100 157 143 148 86 104 113 190 180 165 152 158 109 39 221 118 328 118 218 127 74 135 113 32 353 60 359 71 6 345 52 39 132 142 246 308 80 229 214 336 223 142 145 157 180 189 194 202 204 212 222
159 160 163 164 160 157 160 164 167 170 171 169 172 176 168 100 88 71 60 38 2 36 98 86 89 109 90 95 158 212 227 199 61 88 131 91 86 144 169 162 146 145 132 157 241 226 171 164 131 106 187 127 101 121 55 137 68 150 194 127 313 8 77 4 115 316 9 146 117 128 78 309 67 228 259 237 9 69 131 189 208 217 225 222 215 215 214 221
159 161 163 161 156 157 162 164 167 169 164 169 166 181 165 105 65 68 39 25 357 17 85 92 83 83 98 106 238 230 246 228 136 118 74 60 101 53 98 120 118 131 155 144 207 202 152 141 120 87 309 98 155 129 172 78 16 116 45 122 36 12 345 313 315 325 103 240 48 314 253 265 246 242 260 310 348 0 89 227 242 232 227 232 226 224 234 236
159 160 160 155 153 157 161 163 163 161 166 167 154 172 152 134 45 326 15 334 1 58 67 83 82 82 104 236 266 232 250 167 146 91 30 266 91 16 63 48 77 72 20 95 76 103 110 94 96 117 120 102 146 298 65 354 16 138 239 60 117 95 249 306 11 308 140 316 19 117 202 284 279 271 272 296 332 225 270 250 228 251 259 238 233 235 238 241
159 159 156 151 155 156 160 160 157 156 166 157 165 153 160 121 11 320 309 351 252 79 133 100 58 94 98 265 270 286 237 135 77 43 254 103 116 58 38 54 53 55 86 102 126 75 118 101 89 54 100 282 103 83 33 38 15 28 83 276 327 158 275 295 5 167 168 349 61 95 320 243 261 273 286 315 354 154 231 263 279 261 245 245 242 236 241 244
158 157 154 151 154 154 153 156 155 162 156 160 154 157 120 129 80 340 320 305 58 222 289 142 21 108 95 288 187 352 54 132 172 226 302 118 93 125 164 115 135 36 62 33 61 91 44 85 72 172 130 37 66 99 65 72 341 0 92 238 210 104 255 343 103 341 354 140 5 160 224 320 324 261 273 329 64 73 225 294 285 279 270 250 230 235 243 261
158 157 155 153 152 152 158 156 157 157 154 148 159 124 132 142 50 325 353 19 338 309 175 175 144 115 152 264 3 128 229 245 281 56 25 35 108 149 103 65 50 69 64 82 22 56 360 64 286 38 28 123 165 107 87 348 315 263 34 145 211 165 238 256 307 22 13 83 215 14 218 236 249 285 288 297 123 15 328 287 286 281 273 263 260 246 243 242
157 155 154 152 154 153 157 157 160 155 149 153 143 147 145 125 57 58 326 11 321 168 101 111 118 99 264 54 166 229 352 282 75 145 75 304 112 77 87 90 42 84 76 79 0 86 329 66 33 185 31 45 123 97 147 206 181 203 197 122 274 289 215 232 111 252 7 14 189 329 265 273 275 280 284 274 174 243 271 264 278 283 276 272 256 254 249 247
156 154 151 152 152 157 157 159 157 150 152 150 143 139 119 108 81 103 76 2 95 55 88 204 130 145 215 225 295 21 230 261 110 73 94 57 27 100 63 65 90 119 86 89 242 119 346 75 37 75 172 149 195 171 174 204 169 193 180 175 139 146 216 211 243 285 130 167 255 245 237 269 279 285 288 295 122 278 271 291 284 272 265 262 254 249 248 241
154 155 153 151 152 153 156 158 161 155 155 149 141 115 56 66 18 46 343 8 163 172 199 169 127 187 50 356 114 284 285 21 126 346 81 304 113 70 40 54 28 59 110 166 162 94 101 141 181 196 194 189 205 185 164 179 154 109 78 103 175 174 280 280 275 282 337 99 249 262 278 275 276 272 276 280 301 301 285 280 269 261 263 260 257 250 249 246
157 154 156 154 149 152 158 161 160 159 155 106 150 128 164 179 128 219 220 261 191 217 52 352 177 114 69 249 269 127 120 350 60 25 146 137 128 120 259 42 52 120 358 180 140 223 68 165 230 200 195 192 172 118 109 73 55 137 142 154 207 204 166 189 101 344 328 140 287 28 328 273 265 276 273 278 304 276 260 262 265 263 255 255 253 258 250 253
157 157 154 155 152 155 157 159 159 158 121 132 121 158 239 190 173 212 124 153 240 201 77 200 166 64 343 197 281 138 64 85 65 25 326 109 49 143 276 104 141 171 289 117 56 113 172 208 226 202 125 93 92 88 69 119 111 60 145 161 111 257 246 287 303 340 334 103 266 20 338 278 269 269 271 259 254 248 236 225 245 254 269 264 258 252 262 281
156 154 157 153 148 155 157 158 159 135 121 154 200 141 219 215 277 224 97 97 119 249 98 107 138 152 358 325 279 0 83 141 178 267 240 54 80 149 140 112 131 128 53 180 162 137 200 280 236 165 139 102 60 72 93 73 68 110 99 116 202 245 138 249 282 340 359 75 309 325 320 285 276 272 265 262 250 264 257 252 254 231 249 255 255 259 267 264
156 152 153 155 153 156 157 155 152 130 180 192 197 212 213 134 353 120 56 138 181 268 133 236 149 159 171 144 210 109 128 222 123 198 300 110 140 182 102 128 115 123 190 190 162 169 186 231 321 135 145 140 140 106 120 115 150 2 127 135 131 159 223 149 166 324 341 56 60 353 304 294 336 313 316 310 322 298 276 298 274 257 239 256 283 291 246 253
154 153 152 152 153 153 151 144 139 165 122 211 266 234 201 193 61 51 95 18 15 6 237 4 133 243 182 76 24 159 232 70 232 237 248 120 135 88 161 179 114 199 150 164 113 137 261 284 134 106 93 86 115 148 204 133 183 320 224 172 189 177 138 261 359 100 21 344 358 54 329 307 301 288 253 281 342 324 280 322 278 263 263 248 253 254 265 252
154 152 149 150 153 150 141 137 182 126 151 197 215 248 281 256 258 328 96 65 231 255 38 203 154 225 142 217 38 135 100 199 301 234 89 213 157 132 110 79 102 205 142 133 164 173 200 29 126 159 144 131 134 172 219 147 160 123 254 166 159 144 123 120 99 76 353 163 347 27 177 272 318 285 284 321 333 303 307 270 270 281 265 246 247 252 248 243
151 150 148 151 155 149 138 210 127 121 139 251 241 228 4 227 153 119 68 2 334 206 154 267 79 213 56 191 135 122 114 250 61 37 49 336 129 330 126 211 38 27 152 161 53 251 96 60 76 80 96 121 133 197 231 146 127 216 248 125 111 112 131 160 105 112 188 248 297 45 100 243 310 284 245 322 312 303 309 295 296 287 305 271 253 251 250 252
148 149 147 155 157 160 149 130 145 171 198 227 159 169 148 212 106 57 77 102 259 139 130 252 222 347 95 242 77 142 211 163 105 225 66 293 104 9 90 201 165 170 181 105 190 279 129 164 148 135 104 123 178 209 177 149 136 225 198 140 128 139 140 114 91 101 93 40 279 338 335 289 251 266 313 359 328 302 285 279 276 298 298 293 289 273 262 254
150 148 150 152 159 144 131 141 166 184 215 191 154 118 119 96 108 118 130 127 249 75 264 105 269 60 28 91 76 70 71 6 147 261 308 50 28 152 111 210 127 117 35 162 187 248 355 158 216 157 146 191 231 324 152 153 118 221 129 95 94 81 70 92 103 81 345 75 268 232 213 208 277 275 310 333 236 263 255 259 277 273 283 298 303 305 292 284
151 150 149 154 134 104 70 87 182 195 91 94 132 116 97 114 110 134 109 235 125 211 152 241 145 197 147 144 141 7 115 341 113 352 30 145 332 40 22 149 116 112 125 25 83 185 241 321 177 94 186 188 128 45 107 11 110 132 120 78 42 40 28 30 64 89 59 325 253 248 319 156 296 263 233 183 219 203 254 302 280 291 301 300 293 295 305 307
156 153 156 158 154 147 118 153 223 179 135 134 137 118 120 43 146 99 180 225 51 89 31 122 179 86 141 150 169 309 89 23 99 147 115 0 25 50 135 42 47 54 58 15 59 328 20 0 102 263 86 116 103 75 21 68 100 125 104 129 80 1 11 30 346 34 124 269 264 272 235 52 193 290 279 240 277 234 206 251 283 300 305 303 314 323 326 320
158 161 160 162 146 156 152 203 186 149 157 164 137 131 129 136 346 184 202 82 143 197 157 186 265 152 180 173 130 149 142 54 61 154 153 174 154 152 204 165 161 83 258 187 218 339 0 118 235 347 200 127 125 87 2 16 350 83 93 84 112 229 37 284 11 260 217 207 247 340 182 350 240 233 264 283 269 263 221 221 234 256 288 301 304 311 317 306
162 164 163 146 147 161 128 131 134 154 140 164 122 100 138 116 196 203 225 181 243 137 224 136 176 178 160 121 170 154 354 155 214 137 103 64 140 234 312 146 189 140 194 217 90 98 275 280 20 311 62 221 148 129 134 148 293 103 132 137 106 118 76 231 274 266 309 295 269 312 254 262 264 276 239 246 260 167 232 223 240 244 253 281 293 307 311 303
160 163 160 151 155 163 135 136 148 136 144 168 132 90 60 165 212 203 184 207 181 2 70 109 77 57 152 172 189 168 135 306 153 176 133 156 136 180 238 268 142 114 79 163 166 184 149 293 253 145 226 156 171 165 177 157 163 204 63 150 177 144 158 206 191 199 216 204 285 279 70 232 103 249 228 226 257 288 278 254 242 252 259 273 287 289 287 290
163 158 151 133 150 151 148 146 151 157 137 151 143 166 173 202 209 188 195 192 234 58 65 154 117 129 191 13 316 256 122 143 182 117 159 143 194 190 188 198 222 112 144 124 250 99 209 214 273 299 260 142 168 251 114 98 43 326 159 76 94 217 136 132 207 142 207 345 5 227 217 194 180 274 289 245 269 285 265 274 268 265 261 295 305 293 289 297
153 163 147 161 177 178 141 146 138 143 154 156 145 180 195 193 210 185 206 132 119 118 121 60 58 132 171 91 351 202 326 111 211 120 223 200 208 189 192 179 184 193 164 180 165 172 35 236 346 311 55 106 150 180 112 135 175 224 103 202 208 123 97 96 66 17 87 43 256 160 305 283 301 301 271 303 308 283 325 301 308 277 295 332 293 294 297 292
156 144 167 175 193 167 147 140 134 115 155 181 161 190 200 243 188 145 142 154 176 132 130 132 237 144 172 199 176 195 210 82 182 129 211 143 284 197 196 221 165 175 227 128 248 208 154 225 346 70 180 7 211 134 107 36 151 97 184 230 186 139 122 127 205 353 67 190 265 86 237 295 31 282 322 347 212 283 293 280 274 286 291 283 262 282 267 272
144 162 157 177 186 157 142 145 121 89 109 170 190 194 29 152 236 128 216 105 108 119 124 158 225 103 200 154 208 178 225 163 190 186 184 183 236 189 181 174 200 188 182 299 153 234 119 96 327 0 290 281 351 164 45 9 43 141 197 196 113 220 219 319 91 246 134 265 272 293 277 268 196 250 338 327 186 242 255 271 327 299 281 262 359 278 283 295
149 157 169 177 144 154 156 135 104 127 139 175 203 201 259 122 73 173 234 139 116 120 152 215 129 229 144 188 171 170 168 183 168 195 149 238 207 204 185 158 196 171 158 140 98 147 58 145 284 344 133 295 355 96 197 192 348 39 79 90 92 98 155 122 200 173 124 238 61 287 42 251 194 220 196 239 215 226 240 278 275 268 251 251 285 292 278 282
152 136 161 101 159 154 153 130 105 134 154 190 200 204 164 103 196 274 341 147 176 126 207 159 221 131 160 201 157 166 216 174 170 194 197 198 202 305 191 226 167 181 160 147 128 160 165 132 195 282 291 98 186 195 219 152 145 80 95 199 212 32 231 109 25 132 177 171 183 243 311 275 264 210 187 225 223 220 210 233 252 267 58 147 203 239 268 272
332 102 104 117 154 151 139 130 136 181 191 327 48 146 11 166 178 290 319 13 107 334 151 154 156 157 171 119 212 167 144 134 179 181 193 213 192 214 217 186 138 152 125 80 110 183 102 166 183 126 53 235 237 249 182 164 180 166 164 191 173 133 143 163 251 34 97 117 222 137 255 261 265 187 205 211 228 212 232 244 286 287 257 243 266 259 243 268
51 100 168 137 162 166 148 149 207 32 129 174 192 161 154 113 71 165 55 346 75 121 27 101 24 128 145 170 158 168 143 169 181 186 237 198 219 205 280 136 151 148 148 180 184 223 142 131 104 178 205 202 208 1 253 287 60 184 158 221 173 182 107 132 202 233 49 307 100 168 78 271 232 193 208 225 243 249 235 205 252 272 290 280 240 256 270 238
29 101 330 130 178 174 133 91 20 92 179 249 351 51 22 59 122 208 121 299 91 87 67 79 186 128 267 134 159 158 162 189 173 200 195 214 237 191 219 159 133 157 138 121 69 213 97 102 114 311 309 318 318 309 38 117 139 306 274 134 156 202 179 168 147 177 161 169 138 325 255 264 347 11 249 235 256 266 263 224 248 287 293 293 309 326 354 42
75 109 93 12 21 329 163 182 189 202 154 355 86 88 346 149 123 98 185 203 134 132 151 160 31 346 158 135 142 173 184 160 237 202 240 207 217 273 161 170 162 165 163 201 172 198 154 262 138 115 17 344 345 341 348 346 107 205 195 196 166 80 79 131 96 72 134 213 175 142 229 263 275 318 308 313 336 329 303 265 213 244 290 274 271 236 293 337
99 29 20 359 358 330 170 329 191 175 144 147 137 160 141 40 316 123 155 161 101 148 110 209 188 143 82 166 136 121 192 175 160 220 146 196 212 51 302 168 204 173 178 186 109 158 181 169 143 155 182 191 203 197 214 209 200 177 79 103 158 142 141 119 197 81 204 271 147 193 234 246 337 317 346 334 337 336 357 322 281 215 235 233 275 293 288 274
153 129 77 3 21 23 61 72 66 101 130 140 178 205 127 132 0 326 107 87 152 103 59 125 42 86 107 123 141 159 194 260 140 190 184 209 215 326 211 276 197 188 235 130 139 140 162 153 189 190 195 209 215 213 43 96 88 190 217 151 187 173 173 150 112 137 212 210 174 233 227 260 248 314 311 289 316 233 269 295 263 265 254 262 268 265 274 293
75 94 153 163 32 12 201 127 137 141 181 162 194 149 195 196 145 351 269 124 233 143 97 55 178 141 228 140 171 180 199 188 323 112 205 166 236 225 334 175 161 355 120 104 155 94 87 187 214 206 221 221 220 165 214 144 166 200 176 188 181 173 179 172 180 216 216 173 253 229 228 238 257 177 236 263 268 267 263 278 265 245 258 232 235 268 292 300
126 269 82 258 151 186 159 208 163 168 282 166 219 86 205 190 176 188 21 307 21 335 118 298 55 216 178 176 151 160 176 184 163 206 56 342 107 322 65 6 151 306 29 135 204 149 147 196 226 169 240 241 203 174 174 182 184 190 194 182 177 185 181 186 213 224 193 195 226 241 157 224 255 212 206 217 199 208 211 222 217 228 261 278 276 289 290 277
66 26 205 328 157 248 195 120 148 153 156 170 133 184 208 196 206 201 154 143 85 254 185 192 219 203 172 167 145 162 159 158 242 204 162 159 172 130 108 44 318 355 139 86 150 181 135 229 211 173 222 241 222 175 191 180 204 195 198 192 187 180 191 199 214 220 216 219 232 246 169 225 241 239 192 228 214 222 228 197 118 206 240 245 302 283 258 262
279 109 313 8 70 64 140 130 157 155 172 176 172 200 186 201 210 176 94 162 170 226 151 219 187 177 165 153 138 150 205 197 180 178 216 124 107 119 192 186 154 356 162 163 163 266 154 256 152 143 202 250 242 173 187 200 182 212 234 185 188 196 203 207 214 224 225 242 259 278 277 270 260 220 183 247 239 235 61 225 212 237 295 291 267 259 257 255
130 126 128 124 135 204 101 144 158 167 166 182 203 190 181 196 211 196 201 183 203 193 169 212 144 123 95 131 173 216 164 125 126 173 163 156 173 214 139 238 142 152 164 131 139 170 154 249 48 102 183 273 230 162 204 138 96 204 249 213 196 197 212 223 223 225 194 219 232 244 256 256 262 122 202 226 193 171 215 229 240 249 242 239 240 246 254 259
76 308 92 98 118 193 166 192 160 146 208 196 181 173 177 204 201 164 226 260 230 215 193 186 144 145 176 159 226 209 163 126 96 110 122 92 97 91 86 126 138 151 164 157 340 138 177 150 146 136 180 241 299 136 127 117 84 292 245 228 212 207 209 221 230 233 218 207 218 221 237 243 256 195 207 244 154 209 214 218 224 232 238 238 244 249 248 260